Vorticity
13 3 2 2 7 6 6 8 8 6 6 6 7 6 5 5 5 7 13 6 6 4 2 3 3 3 2 4 5 3 4 5 6 8 8 10 9 10 9 7 6 7 6 2 2
7 17 3 2 2 7 6 6 8 8 6 5 6 6 5 5 5 9 10 6 6 4 2 3 3 4 5 6 4 6 5 6 7 9 9 8 11 8 8 7 8 4 3 3 2
11 5 17 5 2 2 7 5 6 9 7 6 6 5 6 4 5 12 7 5 6 5 3 3 5 5 6 4 4 5 5 5 8 9 9 13 11 9 7 8 3 3 4 2 4
10 8 7 11 10 2 2 8 5 6 10 7 6 7 5 3 8 11 6 5 5 6 3 3 4 6 3 5 6 5 4 5 7 10 14 13 8 7 7 3 1 3 2 4 3
24 9 7 8 8 12 3 2 8 5 5 9 7 6 6 6 7 8 7 4 5 6 5 4 4 6 0 6 4 3 4 7 11 14 16 7 7 10 4 1 3 1 4 4 5
8 16 20 10 10 9 13 3 2 7 6 6 10 7 6 8 6 8 7 5 4 4 3 3 5 6 2 7 3 4 4 7 12 20 9 5 9 5 3 3 1 4 4 6 9
4 6 12 21 15 9 9 14 3 2 6 7 7 11 6 6 9 9 9 5 3 3 2 4 6 6 4 4 3 4 5 7 15 15 7 9 9 4 1 2 2 5 7 9 21
2 3 4 11 19 15 8 8 16 5 2 6 6 9 9 7 8 12 10 6 3 2 3 4 6 6 7 2 3 4 5 8 17 10 7 9 8 4 3 1 5 8 9 17 37
5 2 4 4 9 16 19 9 11 14 5 3 7 7 9 9 7 11 10 7 4 2 3 4 7 5 8 2 4 4 5 8 17 8 8 9 5 3 1 4 7 8 17 27 23
6 5 3 3 3 8 17 19 10 8 15 10 5 6 9 8 10 8 10 8 5 3 3 4 7 5 8 3 4 4 5 9 16 9 11 8 5 4 2 5 9 9 17 26 19
11 5 5 4 3 4 6 15 18 9 14 12 11 8 10 9 9 7 11 9 7 3 4 4 8 4 8 3 4 4 5 8 15 10 11 8 5 3 3 7 6 12 13 25 16
12 12 9 5 5 4 4 11 12 16 11 8 6 11 10 9 9 7 10 11 9 5 4 3 8 5 8 3 4 3 4 6 14 8 11 9 4 3 4 8 3 15 14 18 16
7 13 10 10 4 5 1 6 8 9 17 12 8 14 11 9 9 10 8 12 11 5 4 4 8 5 7 2 3 3 3 4 8 16 11 9 5 2 5 8 2 12 19 15 9
6 9 11 10 9 4 6 2 4 6 12 18 14 7 13 9 8 8 10 11 12 7 5 4 6 6 8 1 3 0 1 2 5 11 12 12 5 4 4 8 1 2 9 10 5
2 5 7 7 9 11 6 6 4 3 4 6 15 12 11 13 8 7 11 11 11 9 4 5 4 8 6 3 4 2 -0 2 2 7 13 9 10 3 5 6 7 1 2 4 11
3 5 7 6 8 8 10 8 6 2 12 10 12 13 8 8 13 10 8 11 10 11 7 5 4 7 4 5 3 3 1 0 2 2 9 16 10 5 7 2 6 6 5 3 5
5 2 7 6 9 10 9 10 4 1 3 1 9 13 15 11 6 8 11 10 11 10 11 6 5 3 9 7 3 4 -1 1 3 1 2 10 16 9 8 4 3 5 -1 -5 -3
1 7 2 5 6 8 9 7 10 5 7 3 1 8 15 15 9 8 11 7 13 11 11 10 6 4 5 6 8 1 3 1 -0 -0 2 2 8 13 8 8 5 2 1 2 8
8 5 4 2 10 7 7 7 7 7 5 5 8 1 7 13 17 11 4 9 8 12 10 11 9 6 5 7 6 7 3 3 2 -1 1 2 1 8 12 9 7 5 5 4 6
5 7 4 4 3 9 5 8 7 7 6 5 7 8 3 5 13 15 13 10 7 12 9 13 13 9 5 4 8 6 4 4 4 0 -1 -0 1 4 7 14 9 7 3 4 5
7 8 6 5 5 7 8 5 5 7 7 6 7 9 6 6 5 10 12 11 11 11 9 10 15 10 9 5 4 7 8 5 1 4 1 -2 3 4 2 4 13 11 9 3 5
0 6 6 7 6 5 7 7 8 5 9 6 7 7 8 5 6 6 12 13 13 10 9 11 10 15 13 5 5 4 8 7 6 2 3 3 -3 1 5 2 2 13 12 7 8
3 5 8 9 5 6 4 6 8 7 7 7 7 9 7 7 5 6 7 10 11 11 8 9 11 11 15 13 9 5 5 6 7 7 3 5 5 1 5 3 0 2 12 15 6
7 4 6 7 7 4 7 5 6 12 8 6 7 8 7 8 9 5 6 7 11 11 10 6 8 10 9 12 16 8 8 5 5 8 8 3 5 9 2 -3 6 2 2 10 16
5 4 6 8 6 4 6 7 4 7 10 9 3 10 9 7 9 9 6 7 7 10 14 14 13 5 5 9 9 13 11 7 5 5 10 -3 9 1 1 1 5 4 2 2 8
6 5 7 10 5 2 4 4 5 10 8 10 7 8 6 11 8 9 9 8 9 6 7 12 11 13 9 7 8 9 9 17 10 6 8 7 6 8 4 3 3 2 6 2 3
5 9 6 13 4 3 8 6 6 6 10 11 5 6 8 9 9 6 8 6 8 9 6 7 14 12 15 11 8 10 9 13 11 14 10 10 8 10 7 10 4 3 4 6 2
Height
5871 5871 5871 5871 5869 5868 5868 5867 5868 5868 5868 5868 5868 5869 5869 5869 5869 5869 5870 5871 5871 5871 5871 5871 5871 5871 5871 5870 5869 5868 5867 5864 5862 5860 5857 5854 5851 5849 5847 5844 5841 5838 5834 5831 5826
5869 5869 5870 5870 5870 5869 5868 5868 5868 5868 5868 5869 5869 5869 5869 5869 5869 5869 5870 5871 5872 5872 5873 5873 5873 5872 5871 5870 5869 5867 5865 5863 5860 5857 5854 5851 5849 5847 5845 5842 5840 5836 5833 5828 5821
5868 5868 5868 5868 5869 5869 5868 5868 5867 5868 5868 5868 5869 5869 5869 5869 5870 5869 5870 5871 5872 5872 5873 5873 5873 5872 5871 5870 5868 5866 5864 5861 5858 5855 5852 5849 5847 5845 5843 5841 5839 5835 5830 5823 5816
5868 5867 5867 5867 5868 5868 5868 5868 5867 5867 5867 5867 5868 5869 5868 5868 5870 5869 5870 5870 5871 5872 5872 5873 5873 5872 5871 5869 5867 5865 5863 5860 5857 5854 5851 5848 5846 5845 5842 5840 5836 5832 5825 5817 5809
5868 5867 5867 5866 5866 5866 5867 5867 5867 5867 5866 5867 5867 5867 5868 5868 5868 5868 5869 5870 5871 5871 5872 5872 5872 5871 5870 5869 5867 5865 5862 5859 5855 5852 5849 5848 5846 5844 5841 5838 5834 5828 5821 5812 5803
5870 5868 5867 5866 5866 5865 5865 5866 5866 5866 5867 5866 5866 5867 5866 5867 5867 5867 5868 5870 5870 5872 5872 5872 5872 5871 5870 5868 5866 5864 5861 5858 5854 5851 5849 5847 5845 5843 5840 5837 5832 5825 5816 5807 5797
5871 5870 5868 5866 5865 5864 5864 5864 5865 5865 5865 5866 5865 5865 5866 5866 5865 5866 5867 5868 5870 5871 5871 5871 5871 5871 5870 5868 5866 5863 5861 5856 5852 5850 5848 5846 5844 5842 5839 5835 5829 5821 5813 5803 5792
5871 5870 5869 5867 5865 5865 5864 5864 5863 5863 5863 5863 5864 5864 5865 5865 5864 5864 5865 5867 5868 5869 5870 5870 5870 5870 5869 5868 5866 5863 5860 5856 5851 5849 5847 5846 5844 5841 5838 5833 5826 5819 5809 5799 5790
5871 5869 5868 5868 5866 5864 5863 5863 5863 5863 5862 5862 5862 5862 5863 5864 5864 5863 5865 5866 5866 5868 5869 5869 5869 5869 5869 5868 5866 5863 5859 5855 5851 5849 5847 5845 5843 5840 5837 5831 5825 5817 5807 5797 5790
5872 5870 5869 5868 5867 5865 5863 5861 5861 5861 5861 5861 5860 5862 5862 5862 5862 5863 5863 5864 5865 5867 5868 5868 5868 5868 5868 5868 5866 5863 5859 5855 5851 5850 5846 5844 5842 5840 5836 5831 5825 5816 5806 5798 5792
5873 5872 5869 5868 5867 5865 5863 5862 5861 5860 5859 5859 5860 5860 5859 5860 5861 5861 5862 5862 5863 5865 5866 5867 5867 5867 5867 5867 5865 5863 5860 5855 5851 5849 5846 5844 5842 5840 5836 5831 5825 5817 5808 5800 5793
5873 5871 5870 5868 5867 5865 5863 5861 5859 5859 5858 5857 5857 5857 5858 5858 5858 5859 5860 5862 5862 5863 5864 5865 5865 5865 5865 5865 5865 5863 5860 5856 5852 5848 5846 5844 5842 5839 5836 5831 5825 5818 5810 5803 5795
5873 5871 5869 5868 5866 5864 5862 5861 5859 5857 5856 5855 5855 5854 5855 5856 5856 5857 5858 5858 5860 5861 5862 5862 5863 5863 5863 5864 5863 5862 5860 5856 5853 5849 5846 5843 5841 5839 5836 5831 5826 5820 5812 5806 5800
5872 5870 5869 5867 5867 5864 5862 5860 5858 5856 5855 5854 5853 5853 5853 5852 5854 5854 5854 5857 5857 5859 5860 5861 5861 5861 5861 5861 5862 5861 5859 5856 5853 5849 5846 5843 5842 5839 5836 5831 5826 5822 5817 5810 5804
5870 5869 5867 5865 5865 5863 5862 5859 5857 5856 5854 5854 5852 5850 5850 5852 5852 5851 5851 5852 5854 5855 5858 5859 5858 5858 5859 5860 5859 5859 5858 5856 5853 5849 5846 5843 5841 5838 5835 5832 5827 5823 5819 5814 5809
5868 5867 5865 5864 5863 5861 5859 5857 5856 5856 5853 5852 5850 5850 5849 5848 5848 5849 5849 5849 5849 5852 5853 5855 5856 5856 5856 5857 5857 5857 5856 5854 5852 5849 5846 5842 5840 5838 5835 5832 5828 5824 5820 5816 5812
5865 5864 5863 5861 5860 5858 5857 5856 5855 5852 5852 5851 5849 5848 5847 5846 5846 5846 5846 5846 5846 5847 5849 5851 5852 5853 5853 5854 5854 5854 5854 5853 5852 5849 5846 5842 5839 5837 5834 5831 5828 5824 5821 5817 5813
5862 5861 5860 5859 5856 5855 5854 5853 5852 5851 5849 5847 5846 5846 5844 5843 5843 5843 5843 5843 5843 5843 5844 5846 5849 5850 5850 5850 5851 5851 5851 5850 5848 5847 5845 5842 5839 5836 5833 5831 5827 5824 5821 5817 5813
5857 5856 5856 5855 5854 5852 5851 5850 5848 5847 5846 5844 5844 5843 5842 5841 5840 5839 5840 5840 5840 5840 5840 5841 5843 5845 5846 5846 5847 5847 5847 5847 5846 5845 5843 5841 5838 5834 5831 5829 5826 5824 5820 5816 5813
5851 5850 5850 5850 5849 5849 5848 5845 5844 5842 5842 5841 5840 5839 5838 5837 5837 5836 5836 5836 5836 5836 5836 5837 5837 5839 5841 5842 5843 5842 5843 5843 5842 5841 5840 5839 5836 5833 5830 5827 5825 5822 5819 5816 5812
5845 5845 5844 5844 5843 5844 5843 5841 5839 5838 5837 5837 5836 5835 5834 5833 5833 5832 5832 5831 5831 5831 5831 5831 5832 5835 5835 5836 5837 5838 5837 5837 5837 5837 5836 5835 5834 5831 5828 5825 5823 5820 5817 5814 5811
5837 5838 5836 5837 5838 5836 5836 5835 5835 5832 5831 5831 5830 5830 5830 5829 5828 5827 5827 5825 5825 5825 5826 5826 5827 5827 5829 5829 5830 5831 5832 5831 5831 5832 5831 5830 5832 5828 5826 5822 5820 5817 5814 5811 5809
5828 5829 5829 5829 5830 5831 5828 5829 5828 5826 5824 5825 5825 5825 5824 5824 5823 5822 5821 5821 5820 5820 5819 5820 5820 5821 5822 5823 5823 5824 5824 5825 5825 5825 5827 5824 5827 5823 5821 5820 5817 5814 5811 5808 5805
5819 5819 5821 5819 5821 5821 5822 5821 5821 5821 5819 5817 5818 5818 5817 5817 5816 5816 5816 5814 5815 5814 5813 5812 5814 5815 5816 5814 5816 5817 5817 5817 5817 5819 5818 5820 5820 5817 5815 5815 5813 5811 5808 5805 5802
5809 5810 5812 5811 5812 5811 5812 5815 5813 5812 5811 5811 5811 5811 5810 5808 5809 5810 5810 5808 5808 5808 5808 5807 5808 5807 5807 5807 5807 5807 5808 5809 5810 5812 5809 5815 5812 5813 5807 5809 5809 5807 5804 5802 5799
5800 5800 5799 5800 5801 5801 5802 5805 5803 5802 5803 5804 5805 5803 5801 5802 5802 5801 5801 5802 5802 5802 5801 5801 5799 5799 5800 5798 5797 5797 5800 5801 5802 5803 5801 5802 5806 5801 5802 5803 5803 5802 5800 5798 5795
5787 5788 5788 5791 5791 5793 5794 5793 5793 5792 5794 5794 5795 5794 5794 5793 5792 5792 5793 5794 5793 5794 5794 5793 5792 5791 5792 5788 5788 5789 5794 5793 5792 5793 5792 5793 5794 5794 5797 5795 5796 5795 5794 5793 5791